This demonstration page uses our WeatherBlox Daily Observations layout. Learn more.

Left ArrowRight Arrow

34.02893, -84.19858

Hourly Observations for February 20, 2017

Temp ( °F °C ) Dew Point ( °F °C ) Humidity (%) Winds ( mph kmh ) Pressure ( in mb ) Visibility ( mi km ) Precip ( " mm )
12:53 am 00:53 Clear 47 8.3 42 5.6 83 83 Calm 30.14 1021 10 16 0.00 0.00
1:53 am 01:53 Clear 45 7.2 42 5.6 90 90 Calm 30.14 1021 10 16 0.00 0.00
2:53 am 02:53 Clear 45 7.2 42 5.6 90 90 Calm 30.13 1020 10 16 0.00 0.00
3:53 am 03:53 Clear 43 6.1 41 5 93 93 Calm 30.12 1020 9 14 0.00 0.00
4:53 am 04:53 Clear 46 7.8 42 5.6 86 86 Calm 30.13 1020 10 16 0.00 0.00
5:53 am 05:53 Clear 42 5.6 40 4.4 92 92 Calm 30.15 1021 10 16 0.00 0.00
6:53 am 06:53 Clear 43 6.1 40 4.4 89 89 Calm 30.17 1022 10 16 0.00 0.00
7:53 am 07:53 Sunny 48 8.9 43 6.1 83 83 NE 5 7 30.18 1022 9 14 0.00 0.00
8:53 am 08:53 Sunny 55 12.8 45 7.2 69 69 E 5 7 30.19 1023 10 16 0.00 0.00
9:53 am 09:53 Sunny 60 15.6 45 7.2 58 58 VRB 5 7 30.21 1023 10 16 0.00 0.00
10:53 am 10:53 Sunny 66 18.9 45 7.2 47 47 VRB 3 6 30.20 1023 10 16 0.00 0.00
11:53 am 11:53 Sunny 68 20 46 7.8 45 45 SE 8 13 30.19 1023 10 16 0.00 0.00
12:53 pm 12:53 Sunny 70 21.1 45 7.2 41 41 VRB 6 9 30.16 1021 10 16 0.00 0.00
1:53 pm 13:53 Sunny 71 21.7 44 6.7 38 38 E 7 11 30.14 1021 10 16 0.00 0.00
2:53 pm 14:53 Sunny 72 22.2 43 6.1 35 35 VRB 6 9 30.13 1020 10 16 0.00 0.00
3:53 pm 15:53 Sunny 74 23.3 41 5 31 31 Calm 30.12 1020 10 16 0.00 0.00
4:53 pm 16:53 Sunny 73 22.8 41 5 32 32 Calm 30.12 1020 10 16 0.00 0.00
5:53 pm 17:53 Sunny 70 21.1 41 5 35 35 ESE 3 6 30.12 1020 10 16 0.00 0.00
6:53 pm 18:53 Clear 65 18.3 43 6.1 45 45 Calm 30.13 1020 10 16 0.00 0.00
7:53 pm 19:53 Clear 61 16.1 44 6.7 54 54 Calm 30.13 1020 10 16 0.00 0.00
8:53 pm 20:53 Clear 62 16.7 43 6.1 50 50 E 3 6 30.13 1020 10 16 0.00 0.00
9:53 pm 21:53 Clear 61 16.1 43 6.1 52 52 E 3 6 30.13 1020 10 16 0.00 0.00
10:53 pm 22:53 Clear 61 16.1 42 5.6 50 50 VRB 5 7 30.11 1020 10 16 0.00 0.00
11:53 pm 23:53 Clear 60 15.6 42 5.6 52 52 E 5 7 30.11 1020 10 16 0.00 0.00

Powered by AerisWeather